Flag for U.S.A. Weather past 2 weeks in Pasadena, Texas, U.S.A.

Now
46 °F

Clear.


Feels Like: 46 °F
Forecast: 48 / 69 °F
Wind: No wind

Location: Houston / Ellington


UV Index: 7 (High)

Visibility: 10 mi


Pressure: 30.16 "Hg

Humidity: 71%

Dew point: 37 °F

Location of PasadenaLocation

Historic Weather in Pasadena

°F

Pasadena temperature yesterday

Maximum temperature yesterday: 64 °F (at 4:50 PM)
Minimum temperature yesterday: 43 °F (at 6:50 AM)
Average temperature yesterday: 53 °F

Past Weeks' High & Low Weather Summary

 TemperatureHumidityPressure
High84 °F (Apr 2, 3:50 PM)100% (Apr 3, 3:50 PM)30.32 "Hg (Apr 3, 3:50 PM)
Low43 °F (Apr 15, 6:50 AM)25% (Apr 8, 7:50 PM)29.64 "Hg (Apr 6, 3:50 PM)
Average67 °F71%29.99 "Hg
* Reported Apr 1 4:50 AM — Apr 16 4:50 AM, Pasadena, Weather by CustomWeather, © 2014

Note: Actual official high and low records may vary slightly from our data, if they occured in-between our weather recording intervals... More about our weather records

Advertising

Historic Weather Conditions — Data for Previous 24 hours

 ConditionsComfort  
Time TempWeatherWind HumidityBarometerVisibility
4:50 AM
Apr 16
46 °FClear.No wind71%30.16 "Hg10 mi
3:50 AM46 °FClear.No wind71%30.17 "Hg10 mi
2:50 AM48 °FClear.No wind58%30.17 "Hg10 mi
1:50 AM48 °FClear.No wind58%30.18 "Hg10 mi
12:50 AM50 °FClear.No wind54%30.18 "Hg10 mi
11:50 PM
Apr 15
54 °FClear.No wind41%30.18 "Hg10 mi
10:50 PM55 °FClear.2 mph38%30.19 "Hg10 mi
9:50 PM57 °FClear.2 mph36%30.19 "Hg10 mi
8:50 PM57 °FClear.6 mph36%30.17 "Hg10 mi
7:50 PM63 °FSunny.5 mph27%30.17 "Hg10 mi
6:50 PM64 °FSunny.8 mph26%30.18 "Hg10 mi
4:50 PM64 °FSunny.7 mph26%30.19 "Hg10 mi
3:50 PM63 °FSunny.12 mph27%30.22 "Hg10 mi
2:50 PM61 °FSunny.12 mph29%30.25 "Hg10 mi
1:59 PM59 °FSunny.15 mph31%30.26 "Hg10 mi
12:50 PM57 °FSunny.15 mph29%30.28 "Hg10 mi
11:50 AM55 °FSunny.17 mph33%30.31 "Hg10 mi
10:50 AM52 °FSunny.20 mph32%30.32 "Hg10 mi
9:50 AM50 °FSunny.13 mph37%30.31 "Hg10 mi
8:50 AM46 °FSunny.13 mph50%30.31 "Hg10 mi
7:50 AM45 °FClear.8 mph61%30.30 "Hg10 mi
6:50 AM43 °FPassing clouds.9 mph66%30.27 "Hg10 mi
Weather by CustomWeather, © 2014

See weather overview